Back to catalog

DMSP 5D-2 F14 DEB

AlivePO
NORAD 62941·DEBRIS·🇺🇸 United States

Launched Apr 4, 1997 from Vandenberg Space Force Base

Loading…

Next Passes (next 24 hours)

TLE

FreshSource: Space-Track

Epoch: Sep 14, 2026, 10:47 UTC

1 62941U 97012M   26257.44948006  .00026581  00000-0  91144-2 0  9991
2 62941  99.4857 332.1235 0063213 212.9086 146.8154 14.34955816521012

Track DMSP 5D-2 F14 DEB in real time with AllMySat

Download on the App Store